Imperial County Airport Imperial US
ICAO: KIPL
IATA: IPL
Category: Medium
Scheduled Services: No

Elevation: -54 ft
TransAlt. 18000 ft.

Airport Communications:
ASOS:132.175
LOS ANGELES CNTR:128.6
SAN DIEGO RDO:122.5
CTAF/UNICOM:122.7

KIPL Zoom In..

If you have problems with the map follow the link
https://www.worldairports.se/pages/airport.php?
ICAO=KIPL

Runways:

(A) RW 08 length 4501 ft width 75 ft
---- / hdg 76

(B) RW 14 length 5308 ft width 100 ft
---- / hdg 139

(C) RW 26 length 4501 ft width 75 ft
---- / hdg 256

(D) RW 32 length 5308 ft width 100 ft
---- / hdg 319

Location; KIPL
Day. 16 / Time. 02.53 Zulu
* Altimeter: 30.01
* Temperature: 17° c. 62.6°f.
* Wind from: 000° Speed 00 kn.
Dewpoint: 01° c.
Visibility: 10 Statute Miles.
Clouds: Clear (automated report).

KIPL 160253Z AUTO 00000KT 10SM CLR 17/01 A3001 RMK AO2 SLP163 T01670011 51002


Wind - Calm.

 
 
jpsmedia.com for Web Design worldairports.se 2018   terms of use